Weather History for Mobile Downtown, AL

Change the Weather History Date:

Saturday, February 16, 2013

  Actual Average Record
Temperature  
Mean Temperature 45 °F -  
Max Temperature 54 °F 62 °F 75 °F (2001)
Min Temperature 34 °F 43 °F 27 °F (2007)
Degree Days  
Heating Degree Days 20    
Moisture  
Dew Point 25 °F    
Average Humidity 46    
Maximum Humidity 74    
Minimum Humidity 22    
Precipitation  
Precipitation 0.00 in - - ()
Sea Level Pressure  
Sea Level Pressure 30.20 in    
Wind  
Wind Speed 12 mph (NW)    
Max Wind Speed 23 mph    
Max Gust Speed 33 mph    
Visibility 10 miles    
Events      
Averages and records for this station are not official NWS values.
T = Trace of Precipitation, MM = Missing Value Source: NWS Daily Summary

Daily Weather History Graph

Daily Weather History Graph

Search for Another Location

Airport:

Trip Planner

Search our weather history database for the weather conditions in past years. The results will help you decide how hot, cold, wet, or windy it might be!

Date:

Astronomy

Feb. 16, 2013 Rise Set
Actual Time 6:31 AM CST 5:41 PM CST
Civil Twilight 6:07 AM CST 6:05 PM CST
Nautical Twilight 5:38 AM CST 6:34 PM CST
Astronomical Twilight 5:10 AM CST 7:02 PM CST
Moon 10:14 AM CST (2/16) No Moon Set
Length of Visible Light 11h 58m
Length of Day
11h 09m
Waxing Crescent, 39% of the Moon is Illuminated
Feb 16
Waxing Crescent
Feb 17
First Quarter
Feb 25
Full
Mar 4
Last Quarter
Mar 11
New

Hourly Weather History & Observations

Time (CST) Temp. Windchill Dew Point Humidity Pressure Visibility Wind Dir Wind Speed Gust Speed Precip Events Conditions
12:53 AM 48.0 °F - 39.9 °F 74% 30.12 in 10.0 mi NW 8.1 mph - N/A   Clear
1:53 AM 46.9 °F - 39.0 °F 74% 30.11 in 10.0 mi NW 9.2 mph - N/A   Scattered Clouds
2:53 AM 48.9 °F - 37.9 °F 66% 30.12 in 10.0 mi NW 10.4 mph - N/A   Overcast
3:53 AM 48.9 °F - 36.0 °F 61% 30.13 in 10.0 mi NW 13.8 mph - N/A   Overcast
4:53 AM 48.9 °F - 34.0 °F 56% 30.14 in 10.0 mi NNW 11.5 mph - N/A   Overcast
5:53 AM 48.0 °F - 35.1 °F 61% 30.15 in 10.0 mi NW 9.2 mph - N/A   Overcast
6:53 AM 45.0 °F 40.6 °F 33.1 °F 63% 30.17 in 10.0 mi NW 8.1 mph - N/A   Partly Cloudy
7:53 AM 48.0 °F - 33.1 °F 56% 30.20 in 10.0 mi NW 15.0 mph 20.7 mph N/A   Partly Cloudy
8:53 AM 48.9 °F - 32.0 °F 52% 30.22 in 10.0 mi NW 18.4 mph 25.3 mph N/A   Partly Cloudy
9:53 AM 51.1 °F - 27.0 °F 39% 30.23 in 10.0 mi WNW 20.7 mph 27.6 mph N/A   Partly Cloudy
10:53 AM 53.1 °F - 26.1 °F 35% 30.22 in 10.0 mi NW 19.6 mph 25.3 mph N/A   Partly Cloudy
11:53 AM 52.0 °F - 21.0 °F 30% 30.21 in 10.0 mi NW 15.0 mph 29.9 mph N/A   Partly Cloudy
12:53 PM 54.0 °F - 18.0 °F 24% 30.18 in 10.0 mi NW 19.6 mph 33.4 mph N/A   Partly Cloudy
1:53 PM 54.0 °F - 17.1 °F 23% 30.17 in 10.0 mi NW 23.0 mph 33.4 mph N/A   Scattered Clouds
2:53 PM 53.1 °F - 15.1 °F 22% 30.17 in 10.0 mi WNW 18.4 mph 29.9 mph N/A   Scattered Clouds
3:53 PM 52.0 °F - 16.0 °F 24% 30.17 in 10.0 mi NW 19.6 mph 27.6 mph N/A   Partly Cloudy
4:53 PM 50.0 °F - 14.0 °F 24% 30.18 in 10.0 mi NW 19.6 mph 24.2 mph N/A   Clear
5:53 PM 46.9 °F - 14.0 °F 27% 30.21 in 10.0 mi NW 15.0 mph - N/A   Clear
6:53 PM 44.1 °F 38.1 °F 17.1 °F 34% 30.24 in 10.0 mi NW 11.5 mph - N/A   Clear
7:53 PM 42.1 °F 35.7 °F 18.0 °F 38% 30.27 in 10.0 mi NNW 11.5 mph - N/A   Clear
8:53 PM 39.0 °F 33.4 °F 19.9 °F 46% 30.29 in 10.0 mi NNW 8.1 mph - N/A   Clear
9:53 PM 37.0 °F 31.6 °F 21.9 °F 54% 30.30 in 10.0 mi NNW 6.9 mph - N/A   Clear
10:53 PM 36.0 °F 33.3 °F 21.0 °F 55% 30.31 in 10.0 mi NW 3.5 mph - N/A   Clear
11:53 PM 34.0 °F 28.8 °F 23.0 °F 64% 30.31 in 10.0 mi NNW 5.8 mph - N/A   Clear